sat.trackr.live / text

‹ back to catalog

STARLINK-32457

NORAD 61717 · 2024-196L

PAYLOAD ACTIVE UNKNOWN

§ Identity

Operator
Country
US
Launch date
2024-10-30
Launch site
AFETR
Launch vehicle
Mass (kg)
RCS (m²)

Purposes: comms

External: N2YO · Heavens-Above · Gunter

§ Orbital elements

Epoch: 2026-05-25T03:22:33.086208Z

Period
94.11 min
Inclination
53.1612°
Eccentricity
0.0001424
Mean motion
15.30192130 rev/d
Perigee alt
474.3 km
Apogee alt
476.2 km
Semi-major
6,853.4 km
B*
3.5394e-5
RAAN
106.0821°
Arg perigee
80.0038°
Mean anomaly
280.1124°
Rev number
8,886

§ Raw data

STARLINK-324571 61717U 24196L   26145.14066072  .00000689  00000+0  35394-4 0  99982 61717  53.1612 106.0821 0001424  80.0038 280.1124 15.30192130 88863

JSON: /api/v1/satellites/61717 · /tle

For live sub-satellite position, see the globe view (requires WebGL).

§ Visibility from observer

Set your observer location to see the next 7 days of passes ≥ 10°. The values pass through the URL so the page stays shareable.

No JS? Fill the form by hand. The geolocation button needs JavaScript.